Time,TemperatureF,DewpointF,PressureIn,WindDirection,WindDirectionDegrees,WindSpeedMPH,WindSpeedGustMPH,Humidity,HourlyPrecipIn,Conditions,Clouds,dailyrainin,SoftwareType,DateUTC
2013-05-01 00:52:00,67.0,-99.9,-100.00,ENE,57,1.0,4.0,-999,-99.99,,,-99.99,,2013-05-01 06:52:00,
2013-05-01 01:02:00,67.0,-99.9,-100.00,ENE,57,1.0,4.0,-999,-99.99,,,-99.99,,2013-05-01 07:02:00,
2013-05-01 02:02:00,67.0,-99.9,-100.00,NE,42,2.0,4.0,-999,-99.99,,,-99.99,,2013-05-01 08:02:00,
2013-05-01 02:12:00,67.0,-99.9,-100.00,NE,42,2.0,4.0,-999,-99.99,,,-99.99,,2013-05-01 08:12:00,
2013-05-01 02:22:00,67.0,-99.9,-100.00,East,96,1.0,4.0,-999,-99.99,,,-99.99,,2013-05-01 08:22:00,
2013-05-01 02:30:00,67.0,-99.9,-100.00,NE,38,4.0,4.0,-999,-99.99,,,-99.99,,2013-05-01 08:30:00,
2013-05-01 02:32:00,67.0,-99.9,-100.00,East,96,1.0,4.0,-999,-99.99,,,-99.99,,2013-05-01 08:32:00,
2013-05-01 03:20:00,62.0,-99.9,-100.00,North,356,1.0,2.0,-999,-99.99,,,-99.99,,2013-05-01 09:20:00,
2013-05-01 03:22:00,67.0,-99.9,-100.00,NE,38,4.0,4.0,-999,-99.99,,,-99.99,,2013-05-01 09:22:00,
2013-05-01 03:53:00,64.0,-99.9,-100.00,NNE,28,1.0,2.0,-999,-99.99,,,-99.99,,2013-05-01 09:53:00,
2013-05-01 04:03:00,62.0,-99.9,-100.00,North,356,1.0,2.0,-999,-99.99,,,-99.99,,2013-05-01 10:03:00,
2013-05-01 04:12:00,62.0,-99.9,-100.00,North,356,1.0,2.0,-999,-99.99,,,-99.99,,2013-05-01 10:12:00,
2013-05-01 05:32:00,61.0,-99.9,-100.00,NNE,12,1.0,2.0,-999,-99.99,,,-99.99,,2013-05-01 11:32:00,
2013-05-01 05:42:00,61.0,-99.9,-100.00,NNE,12,1.0,2.0,-999,-99.99,,,-99.99,,2013-05-01 11:42:00,
2013-05-01 07:52:00,62.0,-99.9,-100.00,SSE,166,0.0,2.0,-999,-99.99,,,-99.99,,2013-05-01 13:52:00,
2013-05-01 08:02:00,62.0,-99.9,-100.00,SSE,166,0.0,2.0,-999,-99.99,,,-99.99,,2013-05-01 14:02:00,
2013-05-01 10:53:00,90.0,-99.9,-100.00,NE,42,2.0,4.0,-999,-99.99,,,-99.99,,2013-05-01 16:53:00,
2013-05-01 11:02:00,90.0,-99.9,-100.00,NE,42,2.0,4.0,-999,-99.99,,,-99.99,,2013-05-01 17:02:00,
2013-05-01 11:52:00,92.0,-99.9,-100.00,ENE,71,1.0,5.0,-999,-99.99,,,-99.99,,2013-05-01 17:52:00,
2013-05-01 12:02:00,92.0,-99.9,-100.00,ENE,71,1.0,5.0,-999,-99.99,,,-99.99,,2013-05-01 18:02:00,
2013-05-01 12:52:00,95.0,-99.9,-100.00,NNE,20,5.0,5.0,-999,-99.99,,,-99.99,,2013-05-01 18:52:00,
2013-05-01 13:02:00,95.0,-99.9,-100.00,NNE,20,5.0,5.0,-999,-99.99,,,-99.99,,2013-05-01 19:02:00,
2013-05-01 15:22:00,99.0,-99.9,-100.00,NNE,12,2.0,2.0,-999,-99.99,,,-99.99,,2013-05-01 21:22:00,
2013-05-01 15:32:00,99.0,-99.9,-100.00,NNE,12,2.0,2.0,-999,-99.99,,,-99.99,,2013-05-01 21:32:00,
2013-05-01 16:03:00,98.0,-99.9,-100.00,NNE,18,2.0,3.0,-999,-99.99,,,-99.99,,2013-05-01 22:03:00,
2013-05-01 16:13:00,98.0,-99.9,-100.00,NNE,18,2.0,3.0,-999,-99.99,,,-99.99,,2013-05-01 22:13:00,
2013-05-01 16:33:00,99.0,-99.9,-100.00,North,8,1.0,3.0,-999,-99.99,,,-99.99,,2013-05-01 22:33:00,
2013-05-01 16:42:00,99.0,-99.9,-100.00,North,8,1.0,3.0,-999,-99.99,,,-99.99,,2013-05-01 22:42:00,
2013-05-01 16:53:00,99.0,-99.9,-100.00,North,8,1.0,3.0,-999,-99.99,,,-99.99,,2013-05-01 22:53:00,
2013-05-01 19:00:00,80.0,-99.9,-100.00,NNW,339,1.0,3.0,-999,-99.99,,,-99.99,,2013-05-02 01:00:00,
2013-05-01 19:52:00,80.0,-99.9,-100.00,NNW,339,1.0,3.0,-999,-99.99,,,-99.99,,2013-05-02 01:52:00,
2013-05-01 21:53:00,68.0,-99.9,-100.00,NNW,340,1.0,2.0,-999,-99.99,,,-99.99,,2013-05-02 03:53:00,
2013-05-01 22:03:00,68.0,-99.9,-100.00,NNW,340,1.0,2.0,-999,-99.99,,,-99.99,,2013-05-02 04:03:00,
2013-05-01 23:02:00,67.0,-99.9,-100.00,NNW,335,2.0,3.0,-999,-99.99,,,-99.99,,2013-05-02 05:02:00,
2013-05-01 23:12:00,67.0,-99.9,-100.00,NNW,335,2.0,3.0,-999,-99.99,,,-99.99,,2013-05-02 05:12:00,